GW6326 Weather Reports


time (UTC)temp
C
wind
direction
speed
KPH
gust
KPH
rain 1hr
cm
rain 24hr
cm
rain mn
cm
humidity
%
barometer
mb
20260503213219 17 223 27.4 32.2 0.00 0.20 0.20 57 1012.9
20260503212716 17 218 27.4 33.8 0.00 0.20 0.20 54 1013.1
20260503212214 17 223 35.4 41.8 0.00 0.20 0.20 54 1013.4
20260503211711 17 197 25.7 33.8 0.00 0.20 0.20 56 1013.5
20260503211207 17 231 30.6 37.0 0.00 0.20 0.20 56 1013.4
20260503210703 17 226 38.6 40.2 0.00 0.20 0.20 53 1013.2
20260503210200 17 222 35.4 40.2 0.00 0.20 0.20 53 1013.1
20260503205655 16 193 43.5 51.5 0.00 0.20 0.20 53 1013.4
20260503205152 16 210 30.6 38.6 0.00 0.20 0.20 56 1013.6
20260503204649 17 200 40.2 43.5 0.00 0.20 0.20 54 1013.5
20260503204146 16 201 38.6 41.8 0.00 0.20 0.20 53 1013.9
20260503203643 16 216 32.2 37.0 0.00 0.20 0.20 57 1013.8
20260503203141 16 188 32.2 41.8 0.00 0.20 0.20 55 1013.8
20260503202638 16 206 29.0 38.6 0.00 0.20 0.20 57 1013.9
20260503202136 16 212 29.0 41.8 0.00 0.20 0.20 57 1013.7
20260503201634 16 229 33.8 38.6 0.00 0.20 0.20 56 1013.9
20260503201131 16 215 40.2 49.9 0.00 0.20 0.20 56 1013.8
20260503200627 17 210 41.8 43.5 0.00 0.20 0.20 55 1014.0
20260503200124 17 193 35.4 41.8 0.00 0.20 0.20 55 1014.0
20260503195621 16 190 24.1 29.0 0.00 0.20 0.20 59 1014.2
20260503195118 16 220 43.5 51.5 0.00 0.20 0.20 57 1014.4
20260503194615 16 218 41.8 51.5 0.00 0.20 0.20 54 1014.4
20260503194115 16 196 33.8 43.5 0.00 0.20 0.20 55 1014.5
20260503193613 16 195 35.4 46.7 0.00 0.20 0.20 56 1014.4
20260503193108 16 189 32.2 37.0 0.00 0.20 0.20 61 1014.5
20260503192604 15 224 25.7 29.0 0.00 0.20 0.20 64 1015.1
20260503192100 15 195 32.2 38.6 0.00 0.20 0.20 60 1015.1
20260503191557 15 193 24.1 29.0 0.00 0.20 0.20 64 1014.9
20260503191053 15 184 30.6 38.6 0.00 0.20 0.20 64 1015.1
20260503190550 15 186 35.4 41.8 0.00 0.20 0.20 67 1015.0
20260503190048 13 182 19.3 22.5 0.00 0.20 0.20 77 1015.1
20260503185544 13 148 22.5 25.7 0.00 0.20 0.20 78 1015.3
20260503185044 12 133 11.3 14.5 0.00 0.20 0.20 82 1015.5
20260503184540 12 173 14.5 17.7 0.00 0.20 0.20 81 1015.8
20260503184037 11 182 16.1 20.9 0.00 0.20 0.20 82 1016.0
20260503183533 11 152 11.3 14.5 0.00 0.20 0.20 89 1016.3
20260503183031 10 146 9.7 11.3 0.00 0.20 0.20 89 1016.5
20260503182529 10 148 8.0 9.7 0.00 0.20 0.20 87 1016.7
20260503182027 10 172 11.3 11.3 0.00 0.20 0.20 88 1017.0
20260503181523 10 161 8.0 11.3 0.00 0.20 0.20 89 1017.3
20260503181020 10 167 8.0 9.7 0.00 0.20 0.20 89 1017.6
20260503180517 10 181 14.5 14.5 0.00 0.20 0.20 88 1017.8
20260503180014 9 193 8.0 9.7 0.18 0.20 0.20 91 1018.1
20260503175512 10 220 11.3 12.9 0.30 0.20 0.20 89 1018.4
20260503175008 10 210 17.7 20.9 0.13 0.18 0.18 88 1018.4
20260503174506 10 223 33.8 37.0 0.00 0.15 0.15 78 1018.4
20260503174001 10 175 12.9 14.5 0.18 0.15 0.15 87 1018.3
20260503173457 10 201 12.9 14.5 0.18 0.15 0.15 79 1018.3
20260503172954 10 217 11.3 12.9 0.00 0.13 0.13 88 1018.7
20260503172452 10 214 11.3 12.9 0.00 0.13 0.13 86 1018.6
20260503171948 10 202 16.1 20.9 0.00 0.13 0.13 85 1018.7
20260503171444 10 196 11.3 12.9 0.13 0.13 0.13 85 1018.5
20260503170942 10 204 16.1 17.7 0.13 0.13 0.13 86 1018.9
20260503170438 10 205 14.5 16.1 0.00 0.10 0.10 85 1018.9
20260503150831 12 228 38.6 41.8 0.00 0.00 0.00 64 1019.2
20260503150327 12 219 32.2 38.6 0.00 0.00 0.00 64 1019.0
20260503140251 11 217 25.7 29.0 0.00 0.00 0.00 71 1020.0
20260503131221 9 218 17.7 17.7 0.00 0.00 0.00 74 1020.2
20260503130718 9 220 25.7 29.0 0.00 0.00 0.00 73 1019.9
20260503130215 9 233 19.3 25.7 0.00 0.00 0.00 74 1020.2
20260503120141 7 210 16.1 16.1 0.00 0.00 0.00 78 1020.0
20260503110609 5 204 11.3 12.9 0.00 0.00 0.00 80 1020.0
20260503110106 5 210 11.3 12.9 0.00 0.00 0.00 80 1019.9
20260503090455 5 229 14.5 14.5 0.00 0.00 0.00 76 1019.9
20260503081422 5 216 11.3 11.3 0.00 0.00 0.00 80 1020.0
20260503080919 4 218 6.4 8.0 0.00 0.00 0.00 82 1020.0
20260503080415 4 211 8.0 9.7 0.00 0.00 0.00 81 1020.1
20260503072852 4 203 6.4 9.7 0.00 0.00 0.00 82 1020.2
20260503072349 5 200 8.0 9.7 0.00 0.00 0.00 82 1020.2
20260503071845 4 203 9.7 9.7 0.00 0.00 0.00 82 1020.4
20260503071343 4 212 8.0 9.7 0.00 0.00 0.00 83 1020.2
20260503070838 4 204 8.0 9.7 0.00 0.00 0.00 83 1020.3
20260503070337 5 208 8.0 9.7 0.00 0.00 0.00 83 1020.4
20260503060302 5 186 6.4 8.0 0.00 0.00 0.00 81 1020.9
20260503054749 5 209 8.0 9.7 0.00 0.00 0.00 80 1021.0
20260503054246 5 202 8.0 9.7 0.00 0.00 0.00 80 1021.3
20260503053744 5 210 8.0 9.7 0.00 0.00 0.00 81 1021.1
20260503053242 5 199 9.7 9.7 0.00 0.00 0.00 81 1021.0
20260503052738 5 207 9.7 11.3 0.00 0.00 0.00 81 1021.1
20260503052235 5 208 9.7 11.3 0.00 0.00 0.00 80 1021.4
20260503051730 5 204 8.0 9.7 0.00 0.00 0.00 80 1021.4
20260503051228 5 204 8.0 9.7 0.00 0.00 0.00 80 1021.3
20260503050724 5 211 8.0 9.7 0.00 0.00 0.00 81 1021.3
20260503050221 6 208 9.7 11.3 0.00 0.00 0.00 78 1021.3
20260503045718 5 188 8.0 9.7 0.00 0.00 0.00 79 1021.4
20260503045216 6 199 8.0 9.7 0.00 0.00 0.00 78 1021.6
20260503044712 5 201 8.0 9.7 0.00 0.00 0.00 78 1021.1
20260503044210 5 193 8.0 8.0 0.00 0.00 0.00 79 1021.6
20260503043706 5 194 8.0 9.7 0.00 0.00 0.00 79 1021.4
20260503043204 6 198 8.0 8.0 0.00 0.00 0.00 78 1021.3
20260503042659 5 200 8.0 9.7 0.00 0.00 0.00 80 1021.4
20260503042156 6 198 8.0 8.0 0.00 0.00 0.00 79 1021.7
20260503041652 6 201 8.0 9.7 0.00 0.00 0.00 78 1021.6
20260503041150 6 187 4.8 4.8 0.00 0.00 0.00 79 1021.5
20260503040647 6 187 4.8 4.8 0.00 0.00 0.00 79 1021.6
20260503040145 6 187 4.8 4.8 0.00 0.00 0.00 79 1021.5
20260503035641 6 183 4.8 8.0 0.00 0.00 0.00 79 1021.6
20260503035139 6 197 6.4 9.7 0.00 0.00 0.00 78 1021.7
20260503034636 6 192 4.8 4.8 0.00 0.00 0.00 77 1021.7
20260503034133 6 199 6.4 8.0 0.00 0.00 0.00 77 1021.5
20260503033630 6 179 8.0 9.7 0.00 0.00 0.00 76 1021.5
20260503033128 6 190 8.0 9.7 0.00 0.00 0.00 76 1021.5
20260503032626 6 196 6.4 9.7 0.00 0.00 0.00 76 1021.6
20260503032124 6 183 6.4 8.0 0.00 0.00 0.00 76 1021.6
20260503031621 6 183 6.4 8.0 0.00 0.00 0.00 76 1021.7
20260503031119 6 194 4.8 4.8 0.00 0.00 0.00 76 1021.7
20260503030615 6 185 4.8 8.0 0.00 0.00 0.00 75 1021.5
20260503030112 6 193 4.8 4.8 0.00 0.00 0.00 76 1021.7
20260503025608 6 181 3.2 3.2 0.00 0.00 0.00 76 1021.9
20260503025107 7 181 4.8 4.8 0.00 0.00 0.00 75 1021.7
20260503024603 7 184 4.8 4.8 0.00 0.00 0.00 75 1021.7
20260503024100 7 188 6.4 8.0 0.00 0.00 0.00 74 1021.6
20260503023556 7 185 4.8 4.8 0.00 0.00 0.00 75 1021.6
20260503023054 7 185 4.8 4.8 0.00 0.00 0.00 74 1021.6
20260503022549 7 194 6.4 8.0 0.00 0.00 0.00 73 1021.7
20260503022044 7 188 6.4 8.0 0.00 0.00 0.00 74 1021.7
20260503021541 7 184 4.8 4.8 0.00 0.00 0.00 74 1021.7
20260503021038 7 191 6.4 8.0 0.00 0.00 0.00 73 1021.8
20260503020535 7 182 4.8 8.0 0.00 0.00 0.00 74 1021.6
20260503020032 7 182 3.2 3.2 0.00 0.00 0.00 73 1021.6
20260503015529 8 188 4.8 8.0 0.00 0.00 0.00 72 1021.6
20260503015026 8 176 6.4 8.0 0.00 0.00 0.00 70 1021.4
20260503014522 7 190 4.8 8.0 0.00 0.00 0.00 73 1021.3
20260503014020 8 184 4.8 4.8 0.00 0.00 0.00 72 1021.5
20260503013517 8 186 4.8 4.8 0.00 0.00 0.00 70 1021.6
20260503013015 8 190 6.4 8.0 0.00 0.00 0.00 69 1021.4
20260503012512 8 193 6.4 8.0 0.00 0.00 0.00 71 1021.5
20260503012009 8 192 4.8 4.8 0.00 0.00 0.00 69 1021.3
20260503011506 8 182 4.8 4.8 0.00 0.00 0.00 68 1021.6
20260503011003 9 187 4.8 4.8 0.00 0.00 0.00 65 1021.4
20260503010458 9 185 4.8 4.8 0.00 0.00 0.00 63 1021.5
20260503005956 9 182 8.0 9.7 0.00 0.00 0.00 64 1021.3
20260503005453 10 191 4.8 4.8 0.00 0.00 0.00 63 1021.3
20260503004950 10 190 4.8 4.8 0.00 0.00 0.00 60 1021.4
20260503004446 10 198 6.4 8.0 0.00 0.00 0.00 58 1021.4
20260503003944 10 196 4.8 4.8 0.00 0.00 0.00 58 1021.4
20260503003441 10 196 3.2 3.2 0.00 0.00 0.00 55 1021.5
20260503002938 10 206 4.8 4.8 0.00 0.00 0.00 55 1021.4
20260503002435 10 214 4.8 4.8 0.00 0.00 0.00 56 1021.5
20260503001931 10 233 3.2 3.2 0.00 0.00 0.00 55 1021.6
20260503001428 10 241 3.2 3.2 0.00 0.00 0.00 53 1021.4
20260503000926 10 241 4.8 4.8 0.00 0.00 0.00 53 1021.3
20260503000422 11 242 4.8 4.8 0.00 0.00 0.00 53 1021.5
20260502235920 11 264 8.0 9.7 0.00 0.00 0.00 48 1021.7
20260502235416 11 257 8.0 8.0 0.00 0.00 0.00 49 1021.6
20260502234914 11 269 8.0 9.7 0.00 0.00 0.00 48 1021.5
20260502234410 12 252 8.0 9.7 0.00 0.00 0.00 46 1021.1
20260502233908 12 281 8.0 9.7 0.00 0.00 0.00 44 1021.5
20260502233403 12 259 8.0 8.0 0.00 0.00 0.00 48 1021.5
20260502232900 12 203 6.4 8.0 0.00 0.00 0.00 48 1021.5
20260502232357 12 249 4.8 4.8 0.00 0.00 0.00 48 1021.5
20260502231853 12 236 6.4 8.0 0.00 0.00 0.00 44 1021.5
20260502231351 12 262 8.0 8.0 0.00 0.00 0.00 45 1021.5
20260502230849 12 22 3.2 3.2 0.00 0.00 0.00 42 1021.7
20260502230347 12 254 4.8 8.0 0.00 0.00 0.00 43 1021.7
20260502225844 12 257 4.8 4.8 0.00 0.00 0.00 44 1021.6
20260502225340 12 226 8.0 9.7 0.00 0.00 0.00 46 1021.6
20260502224837 12 284 8.0 9.7 0.00 0.00 0.00 43 1021.8
20260502224333 12 246 8.0 9.7 0.00 0.00 0.00 47 1021.9
20260502223831 12 240 3.2 4.8 0.00 0.00 0.00 48 1021.7
20260502223329 12 232 0.0 0.0 0.00 0.00 0.00 43 1022.0
20260502222826 12 209 3.2 3.2 0.00 0.00 0.00 42 1021.9
20260502222324 12 262 4.8 4.8 0.00 0.00 0.00 46 1021.8
20260502221819 11 323 6.4 9.7 0.00 0.00 0.00 46 1021.8
20260502221316 11 252 4.8 4.8 0.00 0.00 0.00 48 1021.8
20260502220814 11 300 9.7 12.9 0.00 0.00 0.00 46 1021.9
20260502220309 11 241 6.4 8.0 0.00 0.00 0.00 48 1021.9
20260502215806 11 291 11.3 12.9 0.00 0.00 0.00 45 1022.1
20260502215304 12 273 6.4 8.0 0.00 0.00 0.00 45 1021.8
20260502214800 11 302 12.9 14.5 0.00 0.00 0.00 46 1022.1
20260502214256 11 258 11.3 12.9 0.00 0.00 0.00 48 1021.7
20260502213754 12 246 16.1 17.7 0.00 0.00 0.00 45 1021.9